TimeEST,TemperatureF,Dew PointF,Humidity,Sea Level PressureIn,VisibilityMPH,Wind Direction,Wind SpeedMPH,Gust SpeedMPH,PrecipitationIn,Events,Conditions,WindDirDegrees,DateUTC
12:54 AM,41.0,30.9,67,30.08,10.0,West,3.5,-,N/A,,Mostly Cloudy,260,2012-11-04 04:54:00
1:54 AM,39.0,30.0,70,30.07,10.0,West,3.5,-,N/A,,Mostly Cloudy,270,2012-11-04 05:54:00
1:54 AM,36.0,30.0,79,30.06,10.0,West,3.5,-,N/A,,Scattered Clouds,270,2012-11-04 06:54:00
2:54 AM,35.1,30.0,82,30.06,10.0,WSW,3.5,-,N/A,,Partly Cloudy,240,2012-11-04 07:54:00
3:54 AM,34.0,28.0,79,30.06,10.0,WNW,4.6,-,N/A,,Partly Cloudy,290,2012-11-04 08:54:00
4:54 AM,34.0,28.0,79,30.06,10.0,West,4.6,-,N/A,,Scattered Clouds,260,2012-11-04 09:54:00
5:54 AM,36.0,28.9,76,30.06,10.0,NW,4.6,-,N/A,,Mostly Cloudy,310,2012-11-04 10:54:00
6:54 AM,37.0,28.9,73,30.08,10.0,West,5.8,-,N/A,,Mostly Cloudy,270,2012-11-04 11:54:00
7:54 AM,39.0,30.0,70,30.08,10.0,West,6.9,-,N/A,,Mostly Cloudy,280,2012-11-04 12:54:00
8:54 AM,44.1,30.9,60,30.09,10.0,WNW,5.8,-,N/A,,Mostly Cloudy,290,2012-11-04 13:54:00
9:54 AM,44.1,30.0,58,30.08,10.0,WNW,6.9,-,N/A,,Mostly Cloudy,300,2012-11-04 14:54:00
10:54 AM,46.0,30.0,54,30.06,10.0,WNW,5.8,-,N/A,,Mostly Cloudy,300,2012-11-04 15:54:00
11:54 AM,48.0,30.9,52,30.05,10.0,West,10.4,-,N/A,,Mostly Cloudy,280,2012-11-04 16:54:00
12:54 PM,48.9,30.0,48,30.03,10.0,Variable,5.8,-,N/A,,Mostly Cloudy,0,2012-11-04 17:54:00
1:54 PM,50.0,30.0,46,30.01,10.0,NNW,5.8,-,N/A,,Mostly Cloudy,330,2012-11-04 18:54:00
2:54 PM,51.1,28.9,43,30.00,10.0,West,6.9,-,N/A,,Mostly Cloudy,280,2012-11-04 19:54:00
3:54 PM,50.0,28.9,44,30.01,10.0,WNW,4.6,-,N/A,,Scattered Clouds,290,2012-11-04 20:54:00
4:54 PM,46.9,28.9,50,30.01,10.0,North,6.9,-,N/A,,Scattered Clouds,10,2012-11-04 21:54:00
5:54 PM,45.0,28.9,53,30.02,10.0,North,4.6,-,N/A,,Clear,360,2012-11-04 22:54:00
6:54 PM,43.0,28.9,58,30.05,10.0,North,3.5,-,N/A,,Scattered Clouds,360,2012-11-04 23:54:00
7:54 PM,42.1,28.0,58,30.06,10.0,NNW,3.5,-,N/A,,Scattered Clouds,330,2012-11-05 00:54:00
8:54 PM,39.0,28.0,65,30.06,10.0,Calm,Calm,-,N/A,,Scattered Clouds,0,2012-11-05 01:54:00
9:54 PM,37.0,28.0,70,30.06,10.0,Calm,Calm,-,N/A,,Scattered Clouds,0,2012-11-05 02:54:00
10:54 PM,39.0,28.9,67,30.05,10.0,WNW,3.5,-,N/A,,Overcast,300,2012-11-05 03:54:00